Torna al catalogo

COSMOS 1275 DEB

AttivoPO
NORAD 12733·DEBRIS·🇷🇺 Russia

Lanciato Jun 4, 1981 da Plesetsk Cosmodrome

Loading…

Prossimi Passaggi (prossime 24 ore)

TLE

AggiornatoSource: Space-Track

Epoca: Sep 14, 2026, 06:11 UTC

1 12733U 81053CA  26257.25774100  .00003213  00000-0  10103-2 0  9997
2 12733  82.8567 191.4156 0018875 354.3227   5.7748 14.40135729309308

Traccia COSMOS 1275 DEB in tempo reale con AllMySat

Download on the App Store